| DS18B20 | SHTC3 | PZEM-004T | WiFi | ||||||||
|---|---|---|---|---|---|---|---|---|---|---|---|
| ID | Date d/m/Y & Time | data1 สูง | data2 ต่ำ | data3 นอก | temp pcb | hum pcb | Volt | Amp | Watt | rssi | Time |
| 5909 | 23/07/2026 18:28:55 | 32.3  | 32.1  | 30.9  | 33.2  | 65.8  | 225.4  | 0.04  | 4.5  | -79  | 18:28 |
| 5908 | 23/07/2026 18:24:12 | 32.4  | 32.1  | 31.0  | 33.3  | 65.7  | 227.6  | 0.04  | 4.5  | -79  | 18:24 |
| 5907 | 23/07/2026 18:19:29 | 32.4  | 32.1  | 31.0  | 33.2  | 65.7  | 227.8  | 0.04  | 4.5  | -80  | 18:19 |
| 5906 | 23/07/2026 18:14:45 | 32.4  | 32.2  | 31.0  | 33.5  | 65.7  | 228.2  | 0.04  | 4.5  | -78  | 18:14 |
| 5905 | 23/07/2026 18:10:03 | 32.4  | 32.2  | 31.0  | 33.5  | 65.6  | 228.3  | 0.04  | 4.5  | -79  | 18:10 |
| 5904 | 23/07/2026 18:05:19 | 32.4  | 32.2  | 31.1  | 33.5  | 65.5  | 228.2  | 0.04  | 4.5  | -79  | 18:05 |
| 5903 | 23/07/2026 18:00:35 | 32.5  | 32.2  | 31.0  | 33.5  | 65.6  | 228.2  | 0.04  | 4.5  | -78  | 18:00 |
| 5902 | 23/07/2026 17:55:51 | 32.6  | 32.2  | 31.1  | 33.6  | 65.6  | 230.1  | 0.04  | 4.5  | -78  | 17:55 |
| 5901 | 23/07/2026 17:51:08 | 32.6  | 32.2  | 31.0  | 33.6  | 65.4  | 230.9  | 0.04  | 4.6  | -79  | 17:51 |
| 5900 | 23/07/2026 17:46:24 | 32.6  | 32.3  | 31.0  | 33.6  | 65.4  | 231.2  | 0.04  | 4.5  | -78  | 17:46 |
| 5899 | 23/07/2026 17:41:41 | 32.7  | 32.3  | 31.0  | 33.6  | 65.4  | 230.9  | 0.04  | 4.6  | -79  | 17:41 |
| 5898 | 23/07/2026 17:36:58 | 32.7  | 32.3  | 30.9  | 33.6  | 65.4  | 230.6  | 0.04  | 4.6  | -78  | 17:36 |
| 5897 | 23/07/2026 17:32:15 | 32.8  | 32.3  | 30.7  | 33.7  | 65.2  | 231.2  | 0.04  | 4.6  | -79  | 17:32 |
| 5896 | 23/07/2026 17:27:31 | 32.8  | 32.4  | 30.8  | 33.7  | 65.2  | 231.7  | 0.04  | 4.5  | -80  | 17:27 |
| 5895 | 23/07/2026 17:22:48 | 32.8  | 32.4  | 31.0  | 33.8  | 65.2  | 230.7  | 0.04  | 4.5  | -78  | 17:22 |
| 5894 | 23/07/2026 17:18:06 | 32.9  | 32.4  | 31.4  | 33.8  | 65.1  | 231.5  | 0.04  | 4.6  | -80  | 17:18 |
| 5893 | 23/07/2026 17:13:19 | 32.9  | 32.4  | 31.5  | 33.8  | 65.1  | 231.9  | 0.04  | 4.6  | -77  | 17:13 |
| 5892 | 23/07/2026 17:08:35 | 32.9  | 32.4  | 31.5  | 33.8  | 65.0  | 232.0  | 0.04  | 4.5  | -77  | 17:08 |
| 5891 | 23/07/2026 17:03:50 | 32.9  | 32.4  | 31.5  | 33.8  | 65.0  | 230.2  | 0.04  | 4.5  | -79  | 17:03 |
| 5890 | 23/07/2026 16:59:08 | 32.9  | 32.4  | 31.5  | 33.8  | 65.0  | 232.3  | 0.04  | 4.5  | -78  | 16:59 |
| 5889 | 23/07/2026 16:54:24 | 32.9  | 32.5  | 31.5  | 33.9  | 65.1  | 232.2  | 0.04  | 4.5  | -80  | 16:54 |
| 5888 | 23/07/2026 16:49:41 | 32.9  | 32.5  | 31.5  | 33.7  | 65.2  | 232.0  | 0.04  | 4.6  | -79  | 16:49 |
| 5887 | 23/07/2026 16:44:58 | 32.9  | 32.5  | 31.2  | 33.9  | 65.3  | 232.1  | 0.04  | 4.6  | -79  | 16:44 |
| 5886 | 23/07/2026 16:40:15 | 32.9  | 32.5  | 31.0  | 33.8  | 65.2  | 232.1  | 0.04  | 4.5  | -80  | 16:40 |